Location: Wonder Lake State Park
(41.4960°N, 73.6562°W)
Time: 11:11:42
(UTC-04:00)

Daily predictions for brighter satellites

Satellite Brightness Start Highest point End
(mag) Time Altitude Azimuth Time Altitude Azimuth Time Altitude Azimuth
Cosmos 1934 Rocket 4.0 19:52:34 10° S 19:58:34 61° E 20:04:42 10° NNE
Cosmos 2278 3.8 19:53:38 10° S 19:59:09 56° ESE 20:04:43 10° NNE
Meteor 2-4 Rocket 4.0 19:55:07 10° N 20:01:01 85° W 20:06:57 10° S
METEOR-M 4.3 19:55:46 10° S 20:01:06 81° WSW 20:06:29 10° NNW
Cosmos 1633 3.5 19:58:23 10° SSW 20:01:58 53° W 20:05:33 10° N
EO 1 Delta rocket 4.4 19:57:55 10° NNE 20:02:22 40° E 20:07:27 10° SSE
Resurs 01 Rocket 2.2 20:02:05 10° S 20:06:28 65° WSW 20:10:55 10° NNW
NOSS 7 (E) 4.3 20:05:35 10° SSW 20:09:02 87° SE 20:12:25 10° NE
Cosmos 1544 Rocket 3.6 20:04:48 10° S 20:09:10 86° E 20:13:37 10° N
ALOS 2.3 20:06:03 10° SSE 20:10:39 63° ENE 20:15:18 10° N
Cosmos 2208 Rocket 4.0 20:06:43 10° SSW 20:12:01 79° ESE 20:17:27 10° NNE
Cosmos 2369 3.7 20:07:38 10° S 20:13:14 65° ESE 20:18:53 10° NNE
Spot 2 Rocket 4.2 20:08:26 10° S 20:13:26 57° WSW 20:18:28 10° NNW
Cosmos 1980 Rocket 3.6 20:11:58 10° SE 20:15:20 16° E 20:18:42 10° ENE
Cosmos 1975 3.5 20:12:36 10° SSE 20:16:19 34° E 20:20:03 10° NNE
H-2A R/B 2.9 20:13:13 10° SSE 20:17:02 57° ENE 20:20:54 10° N
NOSS 7 (H) 4.3 20:15:08 10° SSW 20:18:25 60° ESE 20:21:47 10° NE
Helios 1B rocket 3.8 20:15:04 10° N 20:19:00 44° WNW 20:22:54 10° SW
CZ-4B DEB 3.1 20:18:09 10° S 20:21:25 71° WSW 20:24:42 10° NNW
Lacrosse 5 rocket 1.0 20:19:02 10° NW 20:22:47 76° NE 20:25:57 13° SE
Envisat 4.2 20:20:12 11° ESE 20:24:03 25° ENE 20:28:08 10° NNE
USA 186 1.6 20:21:50 10° SSE 20:24:54 58° ENE 20:27:46 10° N
Okean 2 3.9 20:21:14 10° NNW 20:25:22 64° W 20:29:28 10° S
Cosmos 1570 Rocket 4.4 20:21:17 10° SSW 20:26:34 72° WNW 20:31:51 10° NNE
Iridium 4 Rocket 3.8 20:21:49 10° NNE 20:26:36 41° E 20:30:58 10° SSE
OTV 4 2.1 20:29:50 10° WSW 20:32:17 23° SSW 20:34:01 14° SSE
Meteor 1-12 Rocket 4.2 20:30:26 10° S 20:36:06 70° E 20:41:56 10° NNE
FENGYUN 3A 3.8 20:31:14 10° S 20:36:35 78° WSW 20:41:58 10° NNW
CZ-2D R/B 3.5 20:33:37 10° S 20:37:28 72° WSW 20:41:22 10° NNW
Cosmos 1656 3.7 20:34:36 10° S 20:40:07 61° ESE 20:45:36 10° NNE
Cosmos 2227 Rocket 2.6 20:38:11 10° NNW 20:43:48 66° WSW 20:49:22 10° S
Cosmos 2150 Rocket 4.2 20:40:02 10° N 20:45:04 51° ENE 20:48:42 18° SE
Tiangong 1 1.1 20:42:39 10° W 20:45:45 70° N 20:47:24 25° E
Cosmos 1605 Rocket 4.2 20:41:04 10° S 20:47:24 81° W 20:53:42 10° N
Cosmos 1500 3.2 20:46:57 10° S 20:50:36 54° E 20:54:18 10° NNE
Cosmos 1825 Rocket 4.5 20:47:04 10° NNE 20:50:58 30° ENE 20:52:30 24° ESE
ERS-1 Rocket 3.1 20:48:08 16° SSE 20:52:06 57° ENE 20:57:02 10° N
Cosmos 1939 Rocket 3.4 20:49:57 22° SE 20:52:12 43° ENE 20:56:09 10° N
Lacrosse 5 2.2 20:49:02 10° NW 20:54:00 53° NE 20:56:52 24° ESE
Cosmos 2100 Rocket 4.1 20:50:07 10° SSE 20:56:09 52° E 21:02:10 10° NNE
Cosmos 1461 4.3 20:52:41 10° NW 20:56:20 33° WSW 20:59:52 10° S
DELTA 2 R/B (1) 3.9 20:53:09 10° W 20:58:35 55° SSW 21:01:40 25° SE
Cosmos 2082 4.4 20:53:22 10° NNW 20:58:49 52° WSW 21:04:14 10° S
Cosmos 2297 Rocket 2.5 20:53:28 10° NNW 20:59:06 69° WSW 21:04:20 12° SSE
Cosmos 1340 3.6 20:58:09 10° NNE 21:01:30 29° ENE 21:01:55 28° E
SPOT 5 3.7 21:00:31 25° ESE 21:02:25 34° ENE 21:06:44 10° N
Cosmos 2061 Rocket 4.1 20:57:02 10° SSE 21:03:07 53° E 21:09:12 10° NNE
YAOGAN 11 4.1 21:00:22 17° SSE 21:03:48 83° ENE 21:08:16 10° NNW
Cosmos 1763 Rocket 4.0 21:01:52 23° SE 21:04:09 33° E 21:08:40 10° NE
YAOGAN 6 4.1 21:04:21 21° ENE 21:04:21 21° ENE 21:07:08 10° NNE
Cosmos 1898 Rocket 3.4 20:58:58 10° NNW 21:04:18 81° ENE 21:07:49 22° SSE
H-2A R/B 2.6 21:03:38 31° ESE 21:04:45 37° ENE 21:08:35 10° N
Cosmos 1626 Rocket 4.2 21:04:04 10° NNW 21:08:22 55° W 21:12:37 10° S
Cosmos 1515 4.1 21:10:09 10° NNW 21:13:58 61° W 21:16:39 18° S
RESURS DK-1 2.3 21:15:15 10° NNW 21:19:24 73° ENE 21:20:28 47° SE
Cosmos 468 Rocket 4.0 21:14:40 10° SSW 21:19:48 82° WNW 21:24:58 10° NNE
Cosmos 1758 Rocket 4.1 21:16:00 10° N 21:20:04 37° ENE 21:20:18 37° E
USA 215 4.4 21:15:54 15° ENE 21:20:27 33° NNE 21:26:08 10° NW
deb Chang Zheng 4 3.7 21:17:30 10° NNE 21:21:54 55° E 21:23:15 39° SSE
Cosmos 2084 3.7 21:18:25 10° NW 21:22:28 61° WSW 21:23:56 37° S
CZ-4 DEB 3.7 21:22:56 29° SSW 21:24:07 43° W 21:27:09 10° NNW
Cosmos 841 Rocket 3.7 21:24:57 36° SSE 21:26:33 48° ESE 21:31:33 10° NNE
Cosmos 1743 2.6 21:26:39 40° S 21:27:59 86° E 21:31:55 10° N
Cosmos 1459 Rocket 3.8 21:22:12 10° S 21:28:15 87° E 21:34:23 10° N
Cosmos 1725 Rocket 4.4 21:28:16 36° ESE 21:29:47 42° E 21:35:35 10° NNE
Cosmos 1814 Rocket 4.1 21:24:55 10° SSW 21:30:15 80° WNW 21:35:36 10° NNE
Terra 3.8 21:32:33 14° ENE 21:32:33 14° ENE 21:34:43 10° NNE
Cosmos 1697 Rocket 3.1 21:30:01 10° SSW 21:35:37 65° WNW 21:41:16 10° NNE
OAO 2 Rocket 3.9 21:33:37 10° WSW 21:38:19 40° S 21:38:28 40° S
SL-16 R/B 3.5 21:46:17 24° ENE 21:46:17 24° ENE 21:49:02 10° NE
Cosmos 2058 Rocket 3.3 21:45:01 55° ENE 21:45:01 55° ENE 21:49:02 10° NNE
NOAA 11 4.4 21:46:06 47° E 21:46:47 50° ENE 21:52:03 10° N
Cosmos 1606 Rocket 3.7 21:50:20 50° SSW 21:51:23 74° W 21:55:50 10° N
ASTEX 1 3.3 21:46:41 10° N 21:51:44 85° E 21:52:42 59° S
ARGOS 3.2 21:53:32 55° E 21:53:58 57° ENE 21:59:14 10° N
Cosmos 2233 Rocket 4.5 21:55:16 40° E 21:55:16 40° E 22:00:43 10° NNE
Cosmos 1842 3.8 21:52:10 10° N 21:55:11 51° N 21:55:11 51° N
Cosmos 1980 Rocket 2.4 21:53:00 10° SSW 21:58:39 70° WNW 22:04:22 10° NNE
Lacrosse 5 rocket 3.8 22:00:59 10° WSW 22:01:24 10° WSW 22:01:42 10° SW
Cosmos 1802 Rocket 4.5 21:56:04 10° SSW 22:02:22 62° W 22:08:46 10° N
Envisat 4.1 22:00:25 25° SSW 22:02:49 40° W 22:07:37 10° NNW
SL-08 R/B 4.4 22:00:46 34° S 22:03:40 85° W 22:09:53 10° N
MetOp-B 4.3 22:07:39 55° SSW 22:08:41 68° WSW 22:14:03 10° NNW
Cosmos 1726 Rocket 4.4 22:14:24 45° W 22:14:54 47° WNW 22:19:11 10° N
Cosmos 1666 4.1 22:16:27 35° NNW 22:16:27 35° NNW 22:18:55 10° N
Cosmos 2016 Rocket 4.5 22:11:10 21° SSW 22:15:18 57° W 22:21:25 10° N
H-2A R/B 2.8 22:17:51 40° NE 22:17:51 40° NE 22:21:32 10° N
Meteor 2-5 Rocket 4.4 22:13:30 10° N 22:18:28 42° NE 22:18:28 42° NE
Meteor 1-15 Rocket 4.3 22:19:19 65° SSW 22:20:14 83° W 22:26:09 10° N
Tiangong 1 4.3 22:19:13 10° W 22:19:22 11° W 22:19:22 11° W
CZ-4B R/B 4.0 22:17:37 10° NNE 22:21:05 48° NNE 22:21:05 48° NNE
Cosmos 1375 Rocket 4.4 22:25:12 72° E 22:25:12 72° E 22:31:31 10° NE
Cosmos 2263 Rocket 2.8 22:20:47 10° NNW 22:25:29 43° NE 22:25:29 43° NE
Cosmos 2322 Rocket 2.5 22:32:37 56° NNE 22:32:37 56° NNE 22:37:02 10° NNE
SL-08 RB Rocket 4.4 22:33:41 52° NW 22:33:41 52° NW 22:37:17 10° NNW
SPOT 1/Viking Rocket 4.0 22:36:08 55° W 22:36:08 55° W 22:41:07 10° NNW
Lacrosse 5 3.4 22:32:29 10° WNW 22:36:04 26° WSW 22:36:04 26° WSW
SPOT 5 4.5 22:39:47 27° WSW 22:40:27 28° W 22:44:38 10° NW
H-2A R/B 4.3 22:40:46 17° W 22:40:55 17° W 22:43:43 10° NW
Cosmos 1125 Rocket 4.4 22:47:30 10° NNW 22:51:36 45° WNW 22:51:36 45° WNW
USA 215 3.2 23:03:14 79° N 23:03:14 79° N 23:09:29 10° NW
Terra 3.4 23:11:26 33° NNW 23:11:26 33° NNW 23:14:06 10° NNW
Cosmos 2278 Rocket 4.5 23:10:15 10° NNE 23:13:01 14° NE 23:13:01 14° NE
SL-16 R/B 3.4 23:28:05 37° WNW 23:28:05 37° WNW 23:33:17 10° N
Cosmos 1844 Rocket 4.3 23:33:19 10° N 23:36:28 29° NNE 23:36:28 29° NNE
Cosmos 2360 Rocket 3.8 23:45:50 30° N 23:45:50 30° N 23:48:41 10° NNE
